Tracking 30923 objects as of 1-Jul-2025
HD Live streaming from Space Station
objects crossing your sky now

CZ-2D DEB

Track CZ-2D DEB now!
10-day predictions


NORAD ID: 44609
Int'l Code: 2017-060B
Perigee: 561.8 km
Apogee: 611.2 km
Inclination: 97.6 °
Period: 96.3 minutes
Semi major axis: 6957 km
RCS: Unknown
Launch date: October 9, 2017
Source: People's Republic of China (PRC)
Launch site: Jiuquan Satellite Launch Center, China (JSC)

Note: This is SATELLITE DEBRIS
Your satellite tracking list
Your tracking list is empty




NASA's NSSDC Master Catalog

Two Line Element Set (TLE):
1 44609U 17060B   25181.03831577  .00002782  00000-0  25012-3 0  9990
2 44609  97.5598 205.8840 0035498  57.0441 303.4186 14.95980294412457
Source of the keplerian elements: AFSPC